ROMMA est une association bénévole à but non lucratif. Votre soutien est indispensable : ADHERER à ROMMA ou FAIRE un DON

Crest - (26, Drôme)

Vallée de la Drôme (315 m)   Longitude: 5°2' E   Latitude: 44°44' N Station partenaire n°62
 

Détail journalier du     <<     >>

Température Precipitation Humidité Pression Vent Dir Rafale Dir. rafale Ensol.
Heure (°C) (mm) (%) (hPa) (km/h) (km/h) (min)
01:00 20.804610141SE8SE0
02:00 20.3048101406SE0
03:00 21.004510131ESE6SE0
04:00 19.804710133SE11ESE0
05:00 19.504710133SE18ESE0
06:00 18.605010133SE18ESE0
07:00 18.405010141SE8SE9
08:00 19.604910141ESE6ESE7
09:00 21.404510142SE11SE9
10:00 25.104010151SE6SE34
11:00 26.803910144SE18SE54
12:00 27.903710145SE18SE56
13:00 29.203310135SE16SE39
14:00 29.403010136SE18ESE34
15:00 32.202610125SE19SE55
16:00 33.202310128SE24SE60
17:00 33.302310119SE24SE60
18:00 33.102410117SE23SE60
19:00 32.202810106SE19SE45
20:00 29.803310117SE26SE20
21:00 27.9045101210SE27SE0
22:00 26.205110126SE23SE0
23:00 24.805710135SE19SE0
minuit 23.805810134SE16SE0

Graphique du 05-08-2019

 

Serveur OMMA